Location: Agendoh
(31.0664°N, 8.9343°W)
Time: 08:16:12
(UTC+00:00)

Cosmos 1092 Rocket - Pass Details

Date: 06 December 2021
Orbit: 953 x 996 km, 83.0° (Epoch: 24 January)

Event Time Altitude Azimuth Distance (km) Brightness Sun altitude
Rises 06:41:54 0° 187° (S) 3,644 7.2 -8.4°
Reaches altitude 10° 06:44:23 10° 188° (S) 2,706 6.5 -7.9°
Maximum altitude 06:50:36 81° 275° (W) 995 4.0 -6.6°
Drops below altitude 10° 06:56:55 10° 3° (N) 2,749 6.2 -5.4°
Sets 06:59:28 0° 5° (N) 3,705 6.8 -4.9°
